[[{"header":{"parameterUnit":"m.s-1","parameterCategory":1,"la1":30.2991,"la2":30.254,"lo1":-89.0895,"lo2":-89.0444,"dy":0.0017,"dx":0.0017,"nx":28,"ny":28,"refTime":"2025-09-06T03:00:00:Z","depth":0,"parameterNumber":2,"parameterNumberName":"U-component_of_WINDS"},"data":[0,0,0,0,0,0,0,0,0,0,0,0,0,0,0,0,0,0,0,0,0,0,0,0,0,0,0,0,0,0,0,0,0,0,0,0,0,0,0,0,0,0,0,0,0,0,0,0,0,0,0,0,0,0,0,0,0,0,-0.0961,-0.0961,0,-0.0958,-0.0958,-0.0958,-0.0948,-0.0948,-0.0947,-0.0947,-0.0945,-0.0945,-0.0946,0,0,0,0,0,0,0,0,0,0,0,0,0,-0.096,-0.096,-0.0961,-0.0961,-0.0961,-0.0958,-0.0958,-0.0958,-0.0948,-0.0948,-0.0947,-0.0947,-0.0945,-0.0945,-0.0946,0,0,0,0,0,0,0,0,0,0,0,0,0,-0.0959,-0.096,-0.0961,-0.0956,-0.0955,-0.0958,-0.0958,-0.0958,-0.0948,-0.0948,-0.0947,-0.0947,-0.0945,-0.0945,-0.0946,-0.0954,0,0,-0.0946,-0.0947,0,0,0,0,0,0,0,0,-0.0959,-0.0959,-0.0957,-0.0956,-0.0956,-0.0953,-0.0957,-0.0957,-0.0948,-0.0951,-0.0947,-0.0947,-0.0948,-0.0948,-0.0948,-0.0954,-0.0954,-0.0946,-0.0947,-0.0947,-0.0947,0,0,0,0,0,0,0,-0.0959,-0.0959,-0.096,-0.0957,-0.0956,-0.0954,-0.0953,-0.0957,-0.0952,-0.0951,-0.095,-0.095,-0.0948,-0.0948,-0.0948,-0.0954,-0.0946,-0.0947,-0.0947,-0.0947,-0.0968,-0.0969,0,0,0,0,0,0,-0.096,-0.0959,-0.096,-0.096,-0.0957,-0.0954,-0.0954,-0.0954,-0.0952,-0.0951,-0.095,-0.0949,-0.0948,-0.0948,-0.0948,-0.0959,-0.0947,-0.0947,-0.0947,-0.0968,-0.0968,-0.0969,0,0,0,0,0,0,-0.096,-0.096,-0.096,-0.096,-0.0959,-0.0955,-0.0955,-0.0954,-0.0955,-0.0951,-0.095,-0.0951,-0.0948,-0.0948,-0.0953,-0.0959,-0.0947,-0.0947,-0.0967,-0.0968,-0.0968,-0.0981,0,0,0,0,0,0,-0.096,-0.096,-0.0963,-0.096,-0.096,-0.0965,-0.0956,-0.0955,-0.0955,-0.0954,-0.0952,-0.0951,-0.0947,-0.0953,-0.0953,-0.0959,-0.0947,-0.0967,-0.0968,-0.0968,-0.098,-0.0981,-0.0983,0,0,0,0,0,-0.096,-0.0967,-0.0963,-0.0963,-0.0963,-0.0965,-0.0965,-0.096,-0.0956,-0.0959,-0.0956,-0.0951,-0.0958,-0.0953,-0.0954,-0.096,-0.0966,-0.0967,-0.0968,-0.0979,-0.0981,-0.0983,0,0,0,0,0,0,-0.0971,-0.0966,-0.0962,-0.0968,-0.0967,-0.0963,-0.0967,-0.0963,-0.0964,-0.0963,-0.0957,-0.0957,-0.0963,-0.0962,-0.0957,-0.0969,-0.0961,-0.0962,-0.0969,-0.0971,-0.0973,-0.0974,-0.0948,0,0,0,0,0,-0.0974,-0.0976,-0.0971,-0.0977,-0.0977,-0.0972,-0.0973,-0.0969,-0.0968,-0.0968,-0.0966,-0.0966,-0.0968,-0.0969,-0.0971,-0.0979,-0.0979,-0.0984,-0.0985,-0.0987,-0.0988,-0.0993,-0.0996,-0.0972,-0.0972,-0.0972,0,0,-0.098,-0.0978,-0.0979,-0.0979,-0.0978,-0.0981,-0.0972,-0.0975,-0.0977,-0.0969,-0.0974,-0.0972,-0.0972,-0.0979,-0.0981,-0.0978,-0.0995,-0.0988,-0.0989,-0.099,-0.0995,-0.0997,-0.0999,-0.0972,-0.0972,-0.0972,0,0,-0.0993,-0.0991,-0.0996,-0.0995,-0.0994,-0.0991,-0.0992,-0.0989,-0.0988,-0.0993,-0.0987,-0.0989,-0.0993,-0.0993,-0.0994,-0.1008,-0.1003,-0.1008,-0.1018,-0.1023,-0.1025,-0.1027,-0.1033,-0.1035,-0.1009,-0.1009,-0.1009,0,-0.1002,-0.1005,-0.0999,-0.1003,-0.1003,-0.0996,-0.1001,-0.1,-0.1,-0.1001,-0.0996,-0.1001,-0.1,-0.1008,-0.1011,-0.1011,-0.1013,-0.1009,-0.1025,-0.1027,-0.1028,-0.1034,-0.1036,-0.101,-0.101,-0.101,-0.101,0,-0.1016,-0.1018,-0.1023,-0.1022,-0.1023,-0.1027,-0.1023,-0.1024,-0.1021,-0.1019,-0.1024,-0.1023,-0.1024,-0.1026,-0.1022,-0.1033,-0.1031,-0.1026,-0.1019,-0.1031,-0.1037,-0.1039,-0.1011,-0.1011,-0.1011,-0.101,0,0,-0.1036,-0.1032,-0.1034,-0.1034,-0.1032,-0.1034,-0.1039,-0.104,-0.1042,-0.1042,-0.1047,-0.105,-0.1045,-0.1046,-0.1043,-0.1047,-0.106,-0.1042,-0.1042,-0.1046,-0.1073,-0.1078,-0.108,-0.1056,-0.1057,-0.1057,-0.1073,0,-0.105,-0.1057,-0.1052,-0.106,-0.1063,-0.1056,-0.106,-0.1059,-0.1057,-0.106,-0.1058,-0.1061,-0.1054,-0.1055,-0.1059,-0.1057,-0.1065,-0.1056,-0.1062,-0.1062,-0.1063,-0.1083,-0.1087,-0.1103,-0.1075,-0.1076,-0.1076,0,-0.1066,-0.1067,-0.1075,-0.1073,-0.1074,-0.1078,-0.108,-0.1082,-0.1082,-0.108,-0.1081,-0.1077,-0.1082,-0.1074,-0.1082,-0.1075,-0.1077,-0.1077,-0.1078,-0.1079,-0.107,-0.1085,-0.1107,-0.111,-0.1079,-0.1079,-0.1078,0,-0.1081,-0.1084,-0.109,-0.109,-0.1088,-0.1091,-0.109,-0.1089,-0.1091,-0.1092,-0.1093,-0.1095,-0.1097,-0.1099,-0.1095,-0.109,-0.1104,-0.1096,-0.1104,-0.1104,-0.1108,-0.1108,-0.1131,-0.1107,-0.1107,-0.1107,-0.1107,0,-0.1097,-0.1103,-0.1097,-0.1101,-0.1107,-0.1102,-0.1109,-0.1107,-0.1107,-0.1111,-0.1104,-0.1108,-0.1103,-0.1107,-0.1104,-0.1112,-0.1112,-0.1111,-0.1111,-0.1113,-0.1113,-0.1115,-0.1114,-0.1108,-0.1108,-0.1108,-0.1107,0,-0.1116,-0.1112,-0.1118,-0.1115,-0.1115,-0.112,-0.1118,-0.1122,-0.1119,-0.1124,-0.1125,-0.1122,-0.1126,-0.1122,-0.1126,-0.1125,-0.1135,-0.1132,-0.1135,-0.1135,-0.1143,-0.1143,-0.117,-0.1174,-0.1146,-0.1146,-0.1147,0,-0.1127,-0.1131,-0.1129,-0.1131,-0.1131,-0.1134,-0.1135,-0.113,-0.1132,-0.1133,-0.1137,-0.114,-0.1143,-0.115,-0.1148,-0.1151,-0.1149,-0.1159,-0.115,-0.1152,-0.1151,-0.1151,-0.1152,-0.1161,-0.1161,-0.1161,-0.1161,0,-0.1147,-0.1145,-0.1147,-0.1149,-0.1151,-0.1152,-0.1153,-0.1155,-0.115,-0.1153,-0.1157,-0.1159,-0.1163,-0.1167,-0.1169,-0.1169,-0.1165,-0.1164,-0.1166,-0.1169,-0.1171,-0.1171,-0.1141,-0.1164,-0.1163,-0.1163,-0.1163,-0.1163,-0.1163,-0.1167,-0.1166,-0.1169,-0.1169,-0.117,-0.1174,-0.1172,-0.1175,-0.1178,-0.1175,-0.118,-0.1181,-0.1184,-0.1184,-0.1189,-0.1185,-0.1188,-0.1189,-0.119,-0.1192,-0.1169,-0.1189,-0.1189,-0.1189,-0.1189,-0.1189,0,-0.1184,-0.1183,-0.1186,-0.1187,-0.119,-0.1185,-0.1186,-0.1188,-0.1193,-0.1193,-0.1196,-0.1201,-0.1205,-0.1204,-0.1208,-0.1212,-0.121,-0.1213,-0.1213,-0.1214,-0.1195,-0.1193,-0.1215,-0.1215,-0.1215,-0.1215,-0.1215,-0.1215,-0.1195,-0.1202,-0.12,-0.1207,-0.1206,-0.1211,-0.1212,-0.1213,-0.1214,-0.122,-0.1223,-0.1222,-0.1222,-0.1226,-0.123,-0.123,-0.1232,-0.1236,-0.1235,-0.1217,-0.1215,-0.1212,-0.1211,-0.1236,-0.1236,-0.1254,-0.1254,-0.1254]},{"header":{"parameterUnit":"m.s-1","parameterCategory":1,"la1":30.2991,"la2":30.254,"lo1":-89.0895,"lo2":-89.0444,"dy":0.0017,"dx":0.0017,"nx":28,"ny":28,"refTime":"2025-09-06T03:00:00:Z","depth":0,"parameterNumber":3,"parameterNumberName":"V-component_of_WINDS"},"data":[0,0,0,0,0,0,0,0,0,0,0,0,0,0,0,0,0,0,0,0,0,0,0,0,0,0,0,0,0,0,0,0,0,0,0,0,0,0,0,0,0,0,0,0,0,0,0,0,0,0,0,0,0,0,0,0,0,0,0.7842,0.7842,0,0.7778,0.7777,0.7776,0.7726,0.7725,0.7725,0.7724,0.7655,0.7654,0.7652,0,0,0,0,0,0,0,0,0,0,0,0,0,0.7918,0.7917,0.7842,0.7842,0.7841,0.7778,0.7777,0.7776,0.7726,0.7725,0.7724,0.7724,0.7655,0.7654,0.7652,0,0,0,0,0,0,0,0,0,0,0,0,0,0.7873,0.7917,0.7843,0.7808,0.7804,0.7778,0.7777,0.7776,0.7726,0.7725,0.7724,0.7724,0.7656,0.7654,0.7652,0.7654,0,0,0.7646,0.7645,0,0,0,0,0,0,0,0,0.7875,0.787,0.7814,0.781,0.7806,0.7759,0.7778,0.7735,0.7726,0.7756,0.7724,0.7723,0.769,0.7685,0.7674,0.765,0.7647,0.7645,0.7644,0.7643,0.7643,0,0,0,0,0,0,0,0.7878,0.7872,0.7817,0.7813,0.7808,0.7795,0.7787,0.777,0.7728,0.7753,0.7749,0.7742,0.7688,0.7677,0.7672,0.7646,0.7645,0.7644,0.7642,0.7641,0.7619,0.7619,0,0,0,0,0,0,0.7887,0.7875,0.7819,0.7815,0.784,0.7794,0.7786,0.7775,0.7728,0.772,0.7743,0.774,0.768,0.7675,0.767,0.7668,0.7643,0.7641,0.764,0.7618,0.7619,0.7619,0,0,0,0,0,0,0.7889,0.7883,0.7821,0.7844,0.7835,0.7793,0.7782,0.7774,0.7763,0.772,0.7712,0.774,0.768,0.7673,0.7658,0.7664,0.764,0.7638,0.7617,0.7618,0.7619,0.7664,0,0,0,0,0,0,0.7892,0.7884,0.7885,0.7844,0.7834,0.7812,0.7782,0.7773,0.776,0.7755,0.7715,0.7707,0.7679,0.7661,0.7656,0.7661,0.7637,0.7616,0.7618,0.7619,0.7662,0.7666,0.767,0,0,0,0,0,0.7895,0.79,0.7886,0.7879,0.7835,0.7812,0.7806,0.7774,0.7761,0.7761,0.7733,0.7709,0.7665,0.766,0.7654,0.7658,0.7616,0.7617,0.7619,0.766,0.7666,0.767,0,0,0,0,0,0,0.7942,0.7894,0.7877,0.787,0.7846,0.7804,0.7803,0.7781,0.7759,0.7756,0.7716,0.7707,0.7696,0.7676,0.7671,0.7657,0.7637,0.7637,0.7671,0.7676,0.768,0.7685,0.7635,0,0,0,0,0,0.7952,0.7939,0.7897,0.7895,0.7883,0.7846,0.7835,0.7812,0.7784,0.7773,0.7745,0.7718,0.7698,0.7686,0.7665,0.7659,0.7648,0.7659,0.7663,0.7667,0.7667,0.766,0.7664,0.7624,0.7624,0.7624,0,0,0.7972,0.7944,0.7938,0.7903,0.7882,0.7868,0.7837,0.7824,0.7812,0.7771,0.7755,0.7733,0.7701,0.769,0.7683,0.7672,0.7676,0.7669,0.7672,0.767,0.7662,0.7666,0.767,0.7625,0.7625,0.7625,0,0,0.8,0.7979,0.7974,0.7953,0.792,0.7895,0.7894,0.7855,0.7839,0.7823,0.7791,0.7776,0.7743,0.7721,0.7705,0.7724,0.77,0.7718,0.7741,0.7735,0.7738,0.774,0.7746,0.7748,0.7719,0.7719,0.7719,0,0.8029,0.8007,0.7974,0.7962,0.7947,0.791,0.7903,0.7884,0.7846,0.7836,0.7825,0.7781,0.7757,0.774,0.7744,0.7733,0.7729,0.7723,0.774,0.7743,0.7744,0.7749,0.7751,0.7721,0.7721,0.7721,0.7721,0,0.8043,0.8029,0.8028,0.7993,0.7978,0.797,0.7933,0.7922,0.79,0.7875,0.7858,0.7827,0.7799,0.7793,0.7772,0.7772,0.7766,0.7748,0.7727,0.7751,0.7755,0.7756,0.7725,0.7724,0.7723,0.7723,0,0,0.81,0.8047,0.8047,0.803,0.7991,0.7979,0.7967,0.794,0.7931,0.7906,0.7894,0.7867,0.7849,0.7831,0.7807,0.7802,0.7817,0.7784,0.7782,0.779,0.7814,0.7827,0.783,0.7801,0.7801,0.7801,0.7816,0,0.8122,0.8101,0.8069,0.8058,0.8043,0.8007,0.7996,0.7971,0.7947,0.793,0.7903,0.7884,0.7863,0.7852,0.7845,0.7817,0.7821,0.7815,0.7788,0.7788,0.7797,0.7832,0.7846,0.7862,0.7817,0.7818,0.7818,0,0.8145,0.8122,0.811,0.8071,0.8063,0.8055,0.8027,0.8012,0.7981,0.7964,0.7944,0.7917,0.7901,0.7883,0.786,0.7857,0.7844,0.7828,0.7828,0.7823,0.7804,0.7827,0.7866,0.7868,0.782,0.782,0.782,0,0.8186,0.8153,0.814,0.8127,0.8082,0.8077,0.8057,0.8026,0.8012,0.7987,0.7977,0.795,0.7935,0.7915,0.7881,0.7871,0.7861,0.784,0.7845,0.7846,0.7844,0.7844,0.788,0.7837,0.7837,0.7837,0.7837,0,0.8214,0.8207,0.8158,0.8151,0.8141,0.8105,0.8096,0.8073,0.8046,0.8032,0.7998,0.7986,0.7942,0.7924,0.7897,0.7881,0.7875,0.7859,0.7852,0.7862,0.7864,0.7852,0.785,0.7838,0.7838,0.7837,0.7837,0,0.8258,0.8226,0.821,0.8168,0.8157,0.8152,0.8116,0.8106,0.8081,0.8063,0.8057,0.8016,0.7993,0.7957,0.7923,0.7905,0.7893,0.7881,0.7903,0.7899,0.7905,0.7905,0.7934,0.7935,0.7893,0.7894,0.7894,0,0.8278,0.8272,0.8229,0.8218,0.82,0.8182,0.8167,0.813,0.8116,0.808,0.8074,0.8048,0.8026,0.799,0.7956,0.7929,0.7916,0.7928,0.7912,0.7922,0.7915,0.7916,0.7914,0.7932,0.7933,0.7933,0.7934,0,0.8315,0.8299,0.8279,0.8253,0.8236,0.8214,0.819,0.8182,0.814,0.8125,0.8101,0.8083,0.8048,0.8022,0.7991,0.7969,0.7944,0.7939,0.7939,0.7948,0.7961,0.7953,0.7913,0.7939,0.7938,0.7938,0.7937,0.7937,0.8346,0.8339,0.8308,0.8286,0.8264,0.8242,0.8231,0.8204,0.8183,0.8153,0.8132,0.8109,0.8076,0.8032,0.8011,0.7991,0.7981,0.798,0.798,0.798,0.7983,0.7965,0.7985,0.7985,0.7985,0.7985,0.7985,0,0.838,0.8359,0.8339,0.8307,0.829,0.8268,0.824,0.8227,0.8207,0.818,0.8158,0.813,0.8104,0.8069,0.804,0.8031,0.8018,0.8025,0.8024,0.8019,0.7995,0.7998,0.8035,0.8035,0.8035,0.8035,0.8035,0.8035,0.8396,0.8382,0.8362,0.8336,0.8313,0.8291,0.8277,0.8256,0.8234,0.8204,0.8183,0.816,0.8128,0.8097,0.8072,0.8062,0.8052,0.8062,0.8048,0.8026,0.8021,0.8017,0.8019,0.8061,0.8061,0.8074,0.8074,0.8074]}]]